Погода в Каджероме

Россия / Республика Коми     64°41′31″N   55°54′23″E
темп.,
°C
ветер,
м/с
пор.,
м/с
влажн.,
%
обл.,
%
осадки,
мм/ч
давл.,
гПа
погр.,
м
8 мая, сб
сб800:00+4вюв2876100 0.0 1011186
03:00+5юв3118677 0.0 1010249
06:00+8ююв41283100 0.6 1009397
09:00+9ююз51090100 1.2 1010859
12:00+7зюз51178100 1.1 1014993
15:00+12юз585779 1.1 10161634
18:00+10зюз2461100 0.0 1018143
21:00+7юз11755 0.0 101916
9 мая, вс
вс900:00+5ююв11775 0.0 102010
03:00+4юв2280100 0.0 102111
06:00+8юв25685 0.0 1020251
09:00+13юв464932 0.0 10191003
12:00+16ююв5834100 0.0 10181618
15:00+18ю51044100 0.0 10162009
18:00+16ююв61355100 0.0 1016787
21:00+15ююв6156081 0.0 1016738
10 мая, пн
пн1000:00+13ююв5166847 0.0 1016577
03:00+13ююв61669100 0.0 1015575
06:00+15ююв71560100 0.0 10141105
09:00+19ю7164626 0.0 10131927
12:00+15ююз71468100 0.3 10131416
15:00+6зсз5886100 4.8 1019643
18:00+5сз2690100 1.3 1023671
21:00+5з128116 1.3 1024135
11 мая, вт
вт1100:00+3юз24860 0.0 102583
03:00+3ююз39855 0.0 1025215
06:00+6зюз3670100 0.0 1025249
09:00+10юз4757100 0.0 1025784
12:00+11юз466199 0.1 10241382
15:00+8юз3580100 0.4 10251132
18:00+8юз2584100 0.1 1025554
21:00+7юз2490100 0.1 1025240
12 мая, ср
ср1200:00+6ююз249465 0.0 1025180
03:00+5ююз2497100 0.0 1026137
06:00+7ююз3894100 0.1 1025331
09:00+10ююз4888100 0.2 1024366
12:00+17юз4766100 0.0 10221028
15:00+18зюз3762100 0.0 1022774
18:00+15з3977100 0.0 1022353
21:00+14з41182100 0.1 1023563